#timestamp,LO_Frequency,Hit,StdDev 
1633586415.5,286046986.9,N
1633586435.3,286046988.2,N
1633586455.2,286046987.7,N
1633586475.9,286046988.0,N
1633586495.7,286046985.4,N
1633586515.6,286046986.2,N
1633586535.4,286046985.9,N
1633586555.2,286046984.1,Y
1633586575.1,286046994.0,P
1633586606.0,286046994.3,E
1633586615.0,286046996.2,N
1633586615.9,286046996.2,P
1633586635.7,286046999.2,P
1633586655.6,286046999.2,N
1633586675.4,286046994.9,Y
1633586695.2,286046997.0,P
1633586715.1,286046995.5,P
1633586716.0,286046995.5,P
1633586735.8,286046995.4,Y
1633586755.6,286047000.9,P
1633586775.5,286047000.5,N
1633586795.3,286047001.0,N
1633586815.1,286046998.5,N
1633586835.9,286046999.2,N
1633586855.7,286046999.1,N
1633586875.5,286046996.8,N
1633586895.4,286046999.6,N
1633586915.2,286046996.8,N
1633586935.0,286046997.3,N
1633586935.9,286046997.3,N
1633586955.8,286046995.1,Y
1633586975.6,286046999.4,P
1633586995.4,286046999.1,N
1633587015.3,286046997.2,P
1633587035.1,286046997.1,Y
1633587055.9,286046996.6,P
1633587075.7,286046997.2,N
1633587095.5,286046998.0,N
1633587115.4,286046995.4,Y
1633587135.2,286046999.2,P
1633587155.0,286046996.6,P
1633587155.9,286046996.6,P
1633587175.8,286046997.2,N
1633587195.6,286046997.4,N
1633587215.4,286046994.9,Y
1633587235.3,286046998.1,P
1633587255.1,286046998.8,P
1633587256.0,286046998.8,N
1633587275.8,286046996.5,Y
1633587295.7,286046998.1,P
1633587315.5,286046999.3,P
1633587335.3,286046996.7,P
1633587355.2,286046996.5,Y
1633587375.9,286046998.7,P
1633587395.7,286046999.0,P
1633587415.6,286047000.8,N
1633587435.4,286047000.3,N
1633587455.2,286047000.8,N
1633587475.1,286046998.4,N
1633587476.0,286046998.4,N
1633587495.8,286046996.6,Y
1633587515.6,286046998.6,P
1633587535.5,286047001.1,P
1633587555.3,286046998.9,N
1633587575.1,286046999.2,N
1633587595.9,286046997.1,Y
1633587615.7,286046997.7,P
1633587635.5,286046997.5,N
1633587655.4,286046997.8,N
1633587675.2,286046996.9,Y
1633587695.0,286047000.6,P
1633587695.9,286047000.6,N
1633587715.8,286046998.1,N
1633587735.6,286046998.2,N
1633587755.4,286046998.7,N
1633587775.3,286046999.0,N
1633587795.1,286046998.2,N
1633587815.8,286046999.0,N
1633587835.7,286046998.8,N
1633587855.5,286047001.2,N
1633587875.3,286047000.4,N
1633587895.2,286046998.6,N
1633587915.0,286046998.7,N
1633587915.9,286046998.7,N
1633587935.7,286047001.2,N
1633587955.6,286046999.3,N
1633587975.4,286046999.0,N
1633587995.2,286046999.5,N
1633588015.1,286046999.1,N
1633588016.0,286046999.1,N
1633588035.8,286046997.5,N
1633588055.6,286046999.6,N
1633588075.5,286046996.6,Y
1633588095.3,286046999.3,P
1633588115.1,286046998.2,P
1633588135.9,286046998.6,N
1633588155.7,286046998.2,Y
1633588175.5,286047000.2,P
1633588195.4,286047001.1,N
1633588215.2,286046999.9,N
1633588235.0,286047000.2,N
1633588235.9,286047000.2,N
1633588255.8,286046998.6,N
1633588275.6,286046998.4,N
1633588295.4,286047001.0,N
1633588315.3,286047000.5,N
1633588335.1,286047000.8,N
1633588355.8,286047000.2,N
1633588375.7,286047000.6,N
1633588395.5,286046999.9,N
1633588415.3,286047000.2,N
1633588435.2,286046999.7,N
1633588455.9,286047002.7,Y
1633588475.7,286047000.9,P
1633588495.6,286047000.7,N
1633588515.4,286047002.4,P
1633588535.2,286047002.7,Y
1633588555.1,286047000.9,P
1633588556.0,286047000.9,P
1633588575.8,286047000.3,P
1633588595.6,286047000.9,Y
1633588615.5,286047000.8,P
1633588635.3,286046999.4,P
1633588655.1,286046998.6,N
1633588675.9,286046998.1,N
1633588695.7,286046998.3,N
1633588715.5,286046998.6,N
1633588735.4,286047000.5,N
1633588755.2,286047002.7,N
1633588775.0,286047000.4,N
1633588775.9,286047000.4,N
1633588795.8,286046999.9,N
1633588815.6,286047000.6,N
1633588835.4,286047002.7,N
1633588855.3,286047000.1,N
1633588875.1,286047002.6,N
1633588895.8,286047002.8,N
1633588915.7,286047001.9,N
1633588935.5,286047002.4,N
1633588955.3,286046999.8,N
1633588975.2,286046999.7,N
1633588995.9,286047002.6,N
1633589015.7,286047001.9,N
1633589035.6,286047002.7,N
1633589055.4,286047000.0,N
1633589075.2,286047002.0,N
1633589095.1,286047000.2,N
1633589096.0,286047000.2,N
1633589115.8,286047002.3,N
1633589135.6,286047002.6,N
1633589155.5,286047001.5,N
1633589175.3,286047004.0,N
1633589195.1,286047003.4,N
1633589215.9,286047005.4,Y
1633589235.7,286047003.9,P
1633589255.5,286047003.5,N
1633589275.4,286047001.4,N
1633589295.2,286047001.5,N
1633589315.0,286047003.8,Y
1633589315.9,286047003.8,P
1633589335.8,286047001.6,N
1633589355.6,286047002.5,N
1633589375.4,286047004.0,Y
1633589395.3,286047001.0,P
1633589415.1,286047000.6,N
1633589435.8,286046998.1,N
1633589455.7,286047000.7,N
1633589475.5,286047000.4,N
1633589495.3,286047002.0,N
1633589515.2,286047002.1,N
1633589535.9,286047002.4,N
1633589555.7,286047002.1,N
1633589575.6,286047002.7,N
1633589595.4,286047002.3,N
1633589615.2,286047004.3,Y
1633589635.1,286047004.4,P
1633589636.0,286047004.4,N
1633589655.8,286047001.3,N
1633589675.6,286047002.2,N
1633589695.5,286047001.4,N
1633589715.3,286047001.6,N
1633589735.1,286047004.3,Y
1633589755.9,286047002.8,P
1633589775.7,286047000.2,N
1633589795.5,286047000.3,N
1633589815.4,286047002.0,N
1633589835.2,286047001.9,N
1633589855.0,286047002.1,N
1633589855.9,286047002.1,N
1633589875.8,286047002.1,N
1633589895.6,286047001.3,N
1633589915.4,286047001.4,N
1633589935.3,286047004.1,Y
1633589955.1,286047002.1,P
1633589975.8,286047001.6,P
1633589995.7,286047002.1,P
